This is the latest recevied weather packets stored in our database for station/object KC3ROS. If no packets are shown the sender has not sent any weather packets the latest 10 day(s).
| Time | Temp. | Humidity | Pressure | Rain* | Wind** | Luminosity | Snow |
|---|---|---|---|---|---|---|---|
| 1778023451 | 20.56° C | 60% | 1006.4 hPa | 0 mm | - | 30 W/m² | - |
| 1778023148 | 20.56° C | 60% | 1006.5 hPa | 0 mm | - | 27 W/m² | - |
| 1778022845 | 20.56° C | 60% | 1006.3 hPa | 0 mm | - | 22 W/m² | - |
| 1778022543 | 20.56° C | 59% | 1006.5 hPa | 0 mm | - | 21 W/m² | - |
| 1778022241 | 20.56° C | 59% | 1006.5 hPa | 0 mm | - | 34 W/m² | - |
| 1778021937 | 20.56° C | 58% | 1006.4 hPa | 0 mm | - | 60 W/m² | - |
| 1778021634 | 20.56° C | 59% | 1006.5 hPa | 0 mm | - | 62 W/m² | - |
| 1778021329 | 20.56° C | 58% | 1006.5 hPa | 0 mm | - | 54 W/m² | - |
| 1778021027 | 20.56° C | 59% | 1006.5 hPa | 0 mm | - | 62 W/m² | - |
| 1778020724 | 20.56° C | 58% | 1006.6 hPa | 0 mm | - | 76 W/m² | - |
| 1778020421 | 20.56° C | 59% | 1006.5 hPa | 0 mm | - | 75 W/m² | - |
| 1778020117 | 20.56° C | 58% | 1006.5 hPa | 0 mm | - | 70 W/m² | - |
| 1778019813 | 21.11° C | 58% | 1006.7 hPa | 0 mm | - | 69 W/m² | - |
| 1778019510 | 21.11° C | 58% | 1006.6 hPa | 0 mm | - | 76 W/m² | - |
| 1778019207 | 21.11° C | 58% | 1006.6 hPa | 0 mm | - | 75 W/m² | - |
| 1778018904 | 21.11° C | 58% | 1006.6 hPa | 0 mm | - | 73 W/m² | - |
| 1778018601 | 21.11° C | 58% | 1006.7 hPa | 0 mm | - | 77 W/m² | - |
| 1778018299 | 21.11° C | 59% | 1006.8 hPa | 0 mm | - | 78 W/m² | - |
| 1778017997 | 21.11° C | 58% | 1007 hPa | 0 mm | - | 66 W/m² | - |
| 1778017695 | 21.11° C | 58% | 1006.9 hPa | 0 mm | - | 72 W/m² | - |
| 1778017392 | 21.11° C | 57% | 1006.7 hPa | 0 mm | - | 88 W/m² | - |
| 1778017088 | 21.11° C | 57% | 1006.9 hPa | 0 mm | - | 121 W/m² | - |
| 1778016787 | 21.11° C | 57% | 1006.7 hPa | 0 mm | - | 137 W/m² | - |
| 1778016482 | 21.11° C | 57% | 1006.6 hPa | 0 mm | - | 160 W/m² | - |
| 1778016180 | 21.11° C | 56% | 1006.5 hPa | 0 mm | - | 152 W/m² | - |
* Rain latest hour (hover to see other rain measurements)
** Current wind speed in m/s (hover to see current wind gust speed)